Location: Maccacari
(45.1333°N, 11.1333°E)
Time: 01:44:20
(UTC+00:00)

Tiros 1 despin weight - Pass Details

Date: 27 January 2021
Orbit: 593 x 642 km, 48.2° (Epoch: 07 March)

Event Time Altitude Azimuth Distance (km) Brightness Sun altitude
Rises 12:40:03 0° 235° (SW) 2,901 ? 24.5°
Reaches altitude 10° 12:42:24 10° 232° (SW) 1,989 ? 24.3°
Maximum altitude 12:46:54 60° 153° (SSE) 704 ? 24.1°
Drops below altitude 10° 12:51:21 10° 73° (ENE) 1,965 ? 23.8°
Sets 12:53:39 0° 70° (ENE) 2,863 ? 23.6°
